FW0267 Weather Reports


Display with metric or nautical units.
time (UTC)temp
F
wind
direction
speed
MPH
gust
MPH
rain 1hr
in
rain 24hr
in
rain mn
in
humidity
%
barometer
mb
20260509162503 75 236 1.0 5.0 0.00 0.00 0.00 49 1011.0
20260509162102 75 239 1.0 5.0 0.00 0.00 0.00 49 1011.0
20260509161600 75 208 1.0 4.0 0.00 0.00 0.00 50 1010.9
20260509161058 74 206 1.0 5.0 0.00 0.00 0.00 49 1011.2
20260509160557 74 213 1.0 9.0 0.00 0.00 0.00 50 1011.3
20260509160058 73 232 2.0 9.0 0.00 0.00 0.00 50 1011.4
20260509155554 73 227 2.0 6.0 0.00 0.00 0.00 50 1011.4
20260509155053 73 44 2.0 7.0 0.00 0.00 0.00 50 1011.5
20260509154555 73 178 2.0 6.0 0.00 0.00 0.00 50 1011.7
20260509154050 73 214 1.0 5.0 0.00 0.00 0.00 50 1012.1
20260509153548 73 202 0.0 7.0 0.00 0.00 0.00 51 1012.0
20260509153047 73 219 2.0 7.0 0.00 0.00 0.00 50 1011.8
20260509152549 73 197 2.0 7.0 0.00 0.00 0.00 50 1011.9
20260509152044 73 154 2.0 5.0 0.00 0.00 0.00 50 1011.9
20260509151544 73 105 2.0 5.0 0.00 0.00 0.00 50 1012.2
20260509151041 72 142 2.0 6.0 0.00 0.00 0.00 49 1012.3
20260509150540 72 189 1.0 5.0 0.00 0.00 0.00 49 1012.2
20260509150039 71 200 1.0 7.0 0.00 0.00 0.00 48 1012.3
20260509145537 71 227 2.0 9.0 0.00 0.00 0.00 47 1012.4
20260509145039 70 263 2.0 9.0 0.00 0.00 0.00 48 1012.3
20260509144538 70 234 0.0 6.0 0.00 0.00 0.00 44 1012.4
20260509144034 70 223 2.0 8.0 0.00 0.00 0.00 42 1012.7
20260509143531 69 74 2.0 8.0 0.00 0.00 0.00 43 1012.8
20260509143030 69 224 2.0 4.0 0.00 0.00 0.00 39 1013.1
20260509142527 69 221 1.0 4.0 0.00 0.00 0.00 41 1013.2
20260509142026 68 190 1.0 5.0 0.00 0.00 0.00 36 1013.0
20260509141525 68 130 2.0 6.0 0.00 0.00 0.00 33 1013.1
20260509141024 67 83 1.0 5.0 0.00 0.00 0.00 30 1013.1
20260509140522 67 209 2.0 5.0 0.00 0.00 0.00 28 1013.1
20260509140020 67 193 1.0 5.0 0.00 0.00 0.00 17 1012.9
20260509135519 66 169 1.0 7.0 0.00 0.00 0.00 12 1013.0
20260509135018 65 224 1.0 7.0 0.00 0.00 0.00 9 1013.1
20260509134516 65 211 2.0 5.0 0.00 0.00 0.00 1 1013.1
20260509134014 64 143 1.0 5.0 0.00 0.00 0.00 1 1013.3
20260509133513 64 171 2.0 5.0 0.00 0.00 0.00 1 1013.5
20260509133012 63 209 1.0 8.0 0.00 0.00 0.00 1 1013.5
20260509132511 63 180 1.0 4.0 0.00 0.00 0.00 1 1013.7
20260509132010 63 178 1.0 7.0 0.00 0.00 0.00 1 1013.7
20260509131508 63 165 2.0 9.0 0.00 0.00 0.00 1 1013.6
20260509131009 62 162 0.0 9.0 0.00 0.00 0.00 1 1013.5
20260509130505 62 185 1.0 3.0 0.00 0.00 0.00 1 1013.5
20260509130007 61 181 1.0 3.0 0.00 0.00 0.00 1 1013.5
20260509125504 61 170 0.0 3.0 0.00 0.00 0.00 1 1013.4
20260509125059 60 155 1.0 6.0 0.00 0.00 0.00 1 1013.4
20260509124602 60 131 1.0 6.0 0.00 0.00 0.00 1 1013.4
20260509124057 59 171 0.0 2.0 0.00 0.00 0.00 1 1013.5
20260509123555 59 171 0.0 4.0 0.00 0.00 0.00 1 1013.5
20260509123055 58 44 1.0 6.0 0.00 0.00 0.00 1 1013.5
20260509122553 57 148 0.0 3.0 0.00 0.00 0.00 1 1013.5
20260509122050 57 148 0.0 3.0 0.00 0.00 0.00 1 1013.5
20260509121550 56 128 0.0 2.0 0.00 0.00 0.00 1 1013.6
20260509121050 56 128 0.0 2.0 0.00 0.00 0.00 1 1013.7
20260509120547 55 113 0.0 2.0 0.00 0.00 0.00 1 1013.8
20260509120052 55 116 1.0 3.0 0.00 0.00 0.00 1 1013.7
20260509115543 54 125 1.0 3.0 0.00 0.00 0.00 1 1013.5
20260509115046 54 135 1.0 3.0 0.00 0.00 0.00 1 1013.5
20260509114540 53 121 1.0 3.0 0.00 0.00 0.00 1 1013.4
20260509114039 53 117 1.0 3.0 0.00 0.00 0.00 1 1013.4
20260509113537 52 144 0.0 2.0 0.00 0.00 0.00 1 1013.3
20260509113037 52 144 0.0 2.0 0.00 0.00 0.00 1 1013.4
20260509112535 52 144 0.0 2.0 0.00 0.00 0.00 1 1013.5
20260509112033 51 144 0.0 0.0 0.00 0.00 0.00 1 1013.4
20260509111532 51 144 0.0 0.0 0.00 0.00 0.00 1 1013.3
20260509111031 51 144 0.0 0.0 0.00 0.00 0.00 1 1013.3
20260509110528 51 144 0.0 0.0 0.00 0.00 0.00 1 1013.3
20260509110030 51 144 0.0 0.0 0.00 0.00 0.00 1 1013.4
20260509105528 51 144 0.0 0.0 0.00 0.00 0.00 1 1013.3
20260509105026 51 144 0.0 0.0 0.00 0.00 0.00 1 1013.4
20260509104534 51 144 0.0 0.0 0.00 0.00 0.00 1 1013.3
20260509104021 51 144 0.0 0.0 0.00 0.00 0.00 1 1013.4
20260509103519 51 144 0.0 0.0 0.00 0.00 0.00 1 1013.4
20260509103018 51 144 0.0 0.0 0.00 0.00 0.00 1 1013.4
20260509102516 51 144 0.0 0.0 0.00 0.00 0.00 1 1013.3
20260509102015 51 144 0.0 0.0 0.00 0.00 0.00 1 1013.3
20260509101515 51 144 0.0 0.0 0.00 0.00 0.00 1 1013.2
20260509101017 51 144 0.0 0.0 0.00 0.00 0.00 1 1013.3
20260509100511 51 144 0.0 0.0 0.00 0.00 0.00 1 1013.3
20260509100010 51 144 0.0 0.0 0.00 0.00 0.00 1 1013.3
20260509095508 51 144 0.0 0.0 0.00 0.00 0.00 1 1013.2
20260509095007 51 144 0.0 0.0 0.00 0.00 0.00 1 1013.2
20260509094504 52 144 0.0 0.0 0.00 0.00 0.00 1 1013.3
20260509094004 52 144 0.0 0.0 0.00 0.00 0.00 1 1013.3
20260509093503 52 144 0.0 0.0 0.00 0.00 0.00 1 1013.3
20260509092559 52 144 0.0 0.0 0.00 0.00 0.00 1 1013.3
20260509092059 52 144 0.0 0.0 0.00 0.00 0.00 1 1013.4
20260509091557 52 144 0.0 0.0 0.00 0.00 0.00 1 1013.5
20260509091055 53 144 0.0 0.0 0.00 0.00 0.00 1 1013.5
20260509090554 53 144 0.0 0.0 0.00 0.00 0.00 1 1013.4
20260509090052 53 144 0.0 0.0 0.00 0.00 0.00 1 1013.5
20260509085550 53 144 0.0 0.0 0.00 0.00 0.00 1 1013.3
20260509085050 53 144 0.0 1.0 0.00 0.00 0.00 1 1013.3
20260509084554 53 144 0.0 2.0 0.00 0.00 0.00 1 1013.2
20260509084046 53 144 0.0 2.0 0.00 0.00 0.00 1 1013.1
20260509083544 53 144 0.0 2.0 0.00 0.00 0.00 1 1013.2
20260509083042 53 144 0.0 2.0 0.00 0.00 0.00 1 1013.2
20260509082541 54 157 0.0 0.0 0.00 0.00 0.00 1 1013.3
20260509082043 54 157 0.0 0.0 0.00 0.00 0.00 1 1013.2
20260509081542 54 157 0.0 0.0 0.00 0.00 0.00 1 1013.1
20260509081036 54 157 0.0 0.0 0.00 0.00 0.00 1 1013.1
20260509080535 54 157 0.0 0.0 0.00 0.00 0.00 1 1013.2
20260509080048 54 157 0.0 0.0 0.00 0.00 0.00 1 1013.2
20260509075534 54 157 0.0 0.0 0.00 0.00 0.00 1 1013.3
20260509075033 55 157 0.0 0.0 0.00 0.00 0.00 1 1013.3
20260509074530 55 157 0.0 0.0 0.00 0.00 0.00 1 1013.4
20260509074028 55 157 0.0 0.0 0.00 0.00 0.00 1 1013.5
20260509073530 55 157 0.0 0.0 0.00 0.00 0.00 1 1013.5
20260509073028 55 157 0.0 0.0 0.00 0.00 0.00 1 1013.5
20260509072524 55 157 0.0 0.0 0.00 0.00 0.00 1 1013.4
20260509072022 55 157 0.0 0.0 0.00 0.00 0.00 1 1013.2
20260509071521 55 157 0.0 0.0 0.00 0.00 0.00 1 1013.3
20260509071020 55 157 0.0 0.0 0.00 0.00 0.00 1 1013.3
20260509070519 55 157 0.0 0.0 0.00 0.00 0.00 1 1013.5
20260509070017 55 157 0.0 2.0 0.00 0.00 0.00 1 1013.5
20260509065515 55 157 0.0 3.0 0.00 0.00 0.00 1 1013.5
20260509065014 55 157 0.0 3.0 0.00 0.00 0.00 1 1013.7
20260509064512 55 150 0.0 2.0 0.00 0.00 0.00 1 1013.9
20260509064013 55 153 0.0 0.0 0.00 0.00 0.00 1 1014.0
20260509063509 55 153 0.0 0.0 0.00 0.00 0.00 1 1014.1
20260509063012 55 153 0.0 2.0 0.00 0.00 0.00 1 1014.2
20260509062508 55 153 0.0 2.0 0.00 0.00 0.00 3 1014.3
20260509062005 55 153 1.0 3.0 0.00 0.00 0.00 9 1014.5
20260509061513 55 155 0.0 3.0 0.00 0.00 0.00 13 1014.6
20260509061005 55 155 0.0 2.0 0.00 0.00 0.00 17 1014.6
20260509060502 56 161 0.0 2.0 0.00 0.00 0.00 21 1014.6
20260509060001 56 161 1.0 3.0 0.00 0.00 0.00 25 1014.6
20260509055600 56 161 1.0 3.0 0.00 0.00 0.00 27 1014.6
20260509055103 56 157 0.0 2.0 0.00 0.00 0.00 31 1014.5
20260509054604 56 157 0.0 5.0 0.00 0.00 0.00 33 1014.5
20260509054101 56 157 0.0 5.0 0.00 0.00 0.00 36 1014.6
20260509053556 56 157 1.0 3.0 0.00 0.00 0.00 38 1014.6
20260509053103 56 155 0.0 3.0 0.00 0.00 0.00 40 1014.6
20260509052554 56 165 0.0 7.0 0.00 0.00 0.00 42 1014.3
20260509052054 56 165 1.0 7.0 0.00 0.00 0.00 44 1014.5
20260509051601 56 171 0.0 1.0 0.00 0.00 0.00 45 1014.4
20260509051053 56 171 0.0 4.0 0.00 0.00 0.00 47 1014.4
20260509050555 56 171 1.0 5.0 0.00 0.00 0.00 47 1014.3
20260509050054 56 164 0.0 2.0 0.00 0.00 0.00 49 1014.4
20260509045551 56 115 0.0 0.0 0.00 0.00 0.00 50 1014.3
20260509045051 56 115 0.0 0.0 0.00 0.00 0.00 51 1014.3
20260509044549 56 115 0.0 0.0 0.00 0.00 0.00 52 1014.2
20260509044047 56 115 0.0 0.0 0.00 0.00 0.00 52 1014.2
20260509043548 56 115 0.0 0.0 0.00 0.00 0.00 53 1014.1
20260509043047 56 115 0.0 0.0 0.00 0.00 0.00 54 1014.1
20260509042546 57 115 0.0 0.0 0.00 0.00 0.00 54 1014.2
20260509042046 57 115 0.0 0.0 0.00 0.00 0.00 55 1014.1
20260509041546 57 115 0.0 0.0 0.00 0.00 0.00 55 1014.1
20260509041046 57 115 0.0 1.0 0.00 0.00 0.00 55 1014.2
20260509040546 57 115 0.0 2.0 0.00 0.00 0.00 55 1014.1
20260509040044 57 115 0.0 2.0 0.00 0.00 0.00 55 1014.1
20260509035544 57 107 0.0 0.0 0.00 0.00 0.00 55 1014.3
20260509035041 57 107 0.0 0.0 0.00 0.00 0.00 54 1014.2
20260509034544 57 107 0.0 0.0 0.00 0.00 0.00 54 1014.2
20260509034037 57 107 0.0 0.0 0.00 0.00 0.00 53 1014.3
20260509033536 57 107 0.0 0.0 0.00 0.00 0.00 52 1014.3
20260509033035 57 107 0.0 0.0 0.00 0.00 0.00 53 1014.4
20260509032534 57 107 0.0 0.0 0.00 0.00 0.00 54 1014.4
20260509032032 57 107 0.0 0.0 0.00 0.00 0.00 55 1014.4
20260509031533 57 107 0.0 0.0 0.00 0.00 0.00 56 1014.4
20260509031029 57 107 0.0 2.0 0.00 0.00 0.00 56 1014.4
20260509030528 57 128 0.0 2.0 0.00 0.00 0.00 56 1014.3
20260509030027 57 192 0.0 1.0 0.00 0.00 0.00 55 1014.2
20260509025526 57 192 0.0 1.0 0.00 0.00 0.00 56 1014.3
20260509025024 57 192 0.0 9.0 0.00 0.00 0.00 56 1014.4
20260509024522 57 153 0.0 9.0 0.00 0.00 0.00 56 1014.3
20260509024021 57 111 0.0 2.0 0.00 0.00 0.00 56 1014.5
20260509023519 57 111 0.0 2.0 0.00 0.00 0.00 56 1014.5
20260509023018 57 296 0.0 0.0 0.00 0.00 0.00 56 1014.4
20260509022517 57 296 0.0 0.0 0.00 0.00 0.00 56 1014.4
20260509022015 57 296 0.0 0.0 0.00 0.00 0.00 56 1014.4
20260509021514 57 292 0.0 0.0 0.00 0.00 0.00 56 1014.4
20260509021016 58 292 0.0 0.0 0.00 0.00 0.00 56 1014.4
20260509020510 58 292 0.0 0.0 0.00 0.00 0.00 56 1014.5
20260509020012 58 292 0.0 0.0 0.00 0.00 0.00 56 1014.5
20260509015508 58 292 0.0 0.0 0.00 0.00 0.00 55 1014.4
20260509015006 58 292 0.0 0.0 0.00 0.00 0.00 55 1014.1
20260509014511 59 292 0.0 0.0 0.00 0.00 0.00 55 1014.4
20260509014003 59 292 0.0 0.0 0.00 0.00 0.00 54 1014.2
20260509013502 59 292 0.0 0.0 0.00 0.00 0.00 54 1014.2
20260509013113 59 292 0.0 0.0 0.00 0.00 0.00 54 1014.2
20260509012559 60 292 0.0 0.0 0.00 0.00 0.00 55 1014.1
20260509012058 60 292 0.0 0.0 0.00 0.00 0.00 54 1014.2
20260509011557 60 292 0.0 0.0 0.00 0.00 0.00 54 1014.0
20260509011057 61 292 0.0 0.0 0.00 0.00 0.00 53 1014.1
20260509010556 61 292 0.0 0.0 0.00 0.00 0.00 53 1014.1
20260509010052 62 292 0.0 0.0 0.00 0.00 0.00 51 1014.1
20260509005551 62 292 0.0 0.0 0.00 0.00 0.00 51 1013.9
20260509005049 62 292 0.0 0.0 0.00 0.00 0.00 51 1014.0
20260509004548 63 292 0.0 0.0 0.00 0.00 0.00 49 1014.1
20260509004046 63 292 0.0 0.0 0.00 0.00 0.00 48 1014.1
20260509003545 63 292 0.0 0.0 0.00 0.00 0.00 50 1014.1
20260509003045 64 292 0.0 0.0 0.00 0.00 0.00 49 1014.1
20260509002542 64 292 0.0 0.0 0.00 0.00 0.00 48 1014.0
20260509002040 65 292 0.0 0.0 0.00 0.00 0.00 46 1013.9
20260509001539 65 292 0.0 0.0 0.00 0.00 0.00 46 1014.0
20260509001038 65 292 0.0 0.0 0.00 0.00 0.00 45 1013.9
20260509000539 65 292 0.0 2.0 0.00 0.00 0.00 45 1013.9
20260509000035 66 292 0.0 2.0 0.00 0.00 0.00 42 1013.9
20260508235534 66 321 0.0 0.0 0.00 0.00 0.00 41 1013.7
20260508235033 66 323 0.0 0.0 0.00 0.00 0.00 43 1013.7
20260508234534 66 323 0.0 3.0 0.00 0.00 0.00 43 1013.7
20260508234028 67 323 0.0 3.0 0.00 0.00 0.00 43 1013.7
20260508233527 67 160 0.0 6.0 0.00 0.00 0.00 43 1013.7
20260508233033 67 160 1.0 6.0 0.00 0.00 0.00 40 1013.6
20260508232524 67 126 0.0 3.0 0.00 0.00 0.00 40 1013.5
20260508232023 67 123 1.0 5.0 0.00 0.00 0.00 39 1013.5
20260508231524 67 144 0.0 5.0 0.00 0.00 0.00 39 1013.4
20260508231021 67 153 0.0 0.0 0.00 0.00 0.00 39 1013.3
20260508230518 68 153 0.0 0.0 0.00 0.00 0.00 39 1013.4
20260508230017 68 153 0.0 3.0 0.00 0.00 0.00 38 1013.3
20260508225516 68 153 0.0 3.0 0.00 0.00 0.00 38 1013.4
20260508225015 68 153 1.0 5.0 0.00 0.00 0.00 38 1013.4
20260508224513 68 135 0.0 7.0 0.00 0.00 0.00 37 1013.3
20260508224011 68 198 1.0 7.0 0.00 0.00 0.00 38 1013.3
20260508223514 68 146 0.0 0.0 0.00 0.00 0.00 39 1013.3
20260508223016 68 145 0.0 1.0 0.00 0.00 0.00 38 1013.4
20260508222508 68 145 0.0 3.0 0.00 0.00 0.00 38 1013.3
20260508222010 68 146 1.0 3.0 0.00 0.00 0.00 35 1013.4
20260508221504 68 122 0.0 3.0 0.00 0.00 0.00 35 1013.4
20260508221005 69 237 1.0 3.0 0.00 0.00 0.00 37 1013.6
20260508220502 69 244 1.0 2.0 0.00 0.00 0.00 36 1013.6
20260508220105 69 244 0.0 3.0 0.00 0.00 0.00 38 1013.6
20260508215559 69 244 0.0 3.0 0.00 0.00 0.00 37 1013.6
20260508215057 69 169 0.0 4.0 0.00 0.00 0.00 35 1013.7
20260508214556 69 202 2.0 4.0 0.00 0.00 0.00 34 1013.5
20260508214054 69 159 0.0 4.0 0.00 0.00 0.00 34 1013.6
20260508213552 69 178 1.0 4.0 0.00 0.00 0.00 36 1013.6
20260508213051 69 333 0.0 4.0 0.00 0.00 0.00 36 1013.6
20260508212550 69 121 0.0 6.0 0.00 0.00 0.00 35 1013.6
20260508212049 69 136 0.0 4.0 0.00 0.00 0.00 35 1013.6
20260508211547 70 143 1.0 5.0 0.00 0.00 0.00 34 1013.6
20260508211045 70 200 2.0 5.0 0.00 0.00 0.00 34 1013.5
20260508210544 70 236 0.0 5.0 0.00 0.00 0.00 32 1013.5
20260508210043 70 257 2.0 5.0 0.00 0.00 0.00 33 1013.5
20260508205540 71 82 1.0 5.0 0.00 0.07 0.00 36 1013.6
20260508205041 71 49 1.0 7.0 0.00 0.07 0.00 31 1013.7
20260508204547 71 185 2.0 7.0 0.00 0.07 0.00 31 1013.7
20260508204036 72 139 1.0 4.0 0.00 0.07 0.00 32 1013.7
20260508203535 72 232 1.0 3.0 0.00 0.07 0.00 32 1013.9
20260508203041 73 231 0.0 3.0 0.00 0.07 0.00 32 1013.9
20260508202532 73 198 0.0 0.0 0.00 0.07 0.00 31 1013.9
20260508202030 74 230 0.0 2.0 0.00 0.07 0.00 30 1013.9
20260508201529 74 230 0.0 3.0 0.00 0.07 0.00 30 1013.9
20260508201028 75 230 0.0 4.0 0.00 0.07 0.00 29 1013.9
20260508200526 75 130 1.0 4.0 0.00 0.07 0.00 28 1014.0
20260508200028 76 167 2.0 4.0 0.00 0.07 0.00 29 1014.0
20260508195525 75 221 0.0 4.0 0.00 0.11 0.00 30 1014.0
20260508195025 75 191 0.0 3.0 0.00 0.11 0.00 30 1014.0
20260508194520 75 240 0.0 3.0 0.00 0.11 0.00 30 1014.1
20260508194019 75 240 0.0 7.0 0.00 0.11 0.00 30 1014.2
20260508193517 75 243 2.0 7.0 0.00 0.11 0.00 29 1014.1
20260508193016 75 163 1.0 7.0 0.00 0.11 0.00 28 1014.3
20260508192514 75 205 1.0 3.0 0.00 0.11 0.00 29 1014.5
20260508192013 75 200 0.0 4.0 0.00 0.11 0.00 31 1014.7
20260508191514 75 70 1.0 4.0 0.00 0.11 0.00 30 1014.8
20260508191010 75 239 1.0 5.0 0.00 0.11 0.00 32 1015.1
20260508190508 75 221 0.0 5.0 0.00 0.11 0.00 31 1015.0
20260508190007 75 328 1.0 3.0 0.00 0.11 0.00 31 1015.2
20260508185505 75 142 1.0 4.0 0.00 0.11 0.00 32 1015.5
20260508185004 74 145 0.0 6.0 0.00 0.11 0.00 32 1015.4
20260508184506 74 179 2.0 6.0 0.00 0.11 0.00 28 1015.4
20260508184100 75 223 3.0 5.0 0.00 0.11 0.00 29 1015.4
20260508183559 76 158 0.0 0.0 0.00 0.11 0.00 31 1015.5
20260508183103 75 239 0.0 3.0 0.00 0.11 0.00 33 1015.4
20260508182556 75 239 1.0 3.0 0.00 0.11 0.00 30 1015.5
20260508182055 75 169 1.0 4.0 0.00 0.11 0.00 32 1015.6
20260508181556 74 183 1.0 7.0 0.00 0.11 0.00 32 1015.5
20260508181055 74 113 0.0 7.0 0.00 0.11 0.00 32 1015.6
20260508180551 74 224 1.0 8.0 0.00 0.11 0.00 32 1015.9
20260508180049 74 160 2.0 8.0 0.00 0.11 0.00 31 1016.0
20260508175547 75 178 1.0 4.0 0.00 0.11 0.00 31 1016.0
20260508175046 75 181 1.0 4.0 0.00 0.11 0.00 33 1016.2
20260508174553 74 162 1.0 4.0 0.00 0.11 0.00 33 1016.0
20260508174042 74 209 1.0 5.0 0.00 0.11 0.00 33 1016.1
20260508173541 74 141 0.0 5.0 0.00 0.11 0.00 32 1016.2
20260508173040 73 150 1.0 5.0 0.00 0.11 0.00 29 1016.3
20260508172538 73 179 2.0 5.0 0.00 0.11 0.00 31 1016.4
20260508172038 74 152 2.0 5.0 0.00 0.11 0.00 27 1016.4
20260508171537 74 207 0.0 3.0 0.00 0.11 0.00 32 1016.5
20260508171034 74 207 0.0 0.0 0.00 0.11 0.00 33 1016.6
20260508170532 73 209 0.0 0.0 0.00 0.11 0.00 35 1016.7
20260508170035 73 209 0.0 0.0 0.00 0.11 0.00 29 1016.7
20260508165529 73 210 0.0 0.0 0.00 0.11 0.00 32 1016.8
20260508165028 73 210 0.0 3.0 0.00 0.11 0.00 35 1016.9
20260508164527 73 199 0.0 3.0 0.00 0.11 0.00 33 1017.0
20260508164025 73 199 0.0 2.0 0.00 0.11 0.00 33 1017.1
20260508163524 72 146 0.0 2.0 0.00 0.11 0.00 35 1017.1
20260508163022 72 146 0.0 2.0 0.00 0.11 0.00 34 1017.2